Satellite: AO-27
Catalog number: 22825
Epoch time:      06193.51084011
Element set:    0447
Inclination:      098.2823 deg
RA of node:       174.0984 deg
Eccentricity:    0.0008200
Arg of perigee:   180.7243 deg
Mean anomaly:     179.3926 deg
Mean motion:   14.29177728 rev/day
Decay rate:       -2.6e-07 rev/day^2
Epoch rev:           66697
Checksum:              321

Satellite: IO-26
Catalog number: 22826
Epoch time:      06194.73630771
Element set:     137
Inclination:      098.2783 deg
RA of node:       176.4620 deg
Eccentricity:    0.0008750
Arg of perigee:   174.8705 deg
Mean anomaly:     185.2554 deg
Mean motion:   14.29421728 rev/day
Decay rate:        6.0e-08 rev/day^2
Epoch rev:           66722
Checksum:              319

Satellite: PO-28
Catalog number: 22829
Epoch time:      06193.66781259
Element set:     420
Inclination:      098.2676 deg
RA of node:       176.6476 deg
Eccentricity:    0.0010135
Arg of perigee:   153.5108 deg
Mean anomaly:     206.6593 deg
Mean motion:   14.30116114 rev/day
Decay rate:        3.0e-08 rev/day^2
Epoch rev:           66728
Checksum:              307

Satellite: TO-31
Catalog number: 25396
Epoch time:      06193.67435794
Element set:    0574
Inclination:      098.4776 deg
RA of node:       253.0879 deg
Eccentricity:    0.0003438
Arg of perigee:   116.3878 deg
Mean anomaly:     243.7660 deg
Mean motion:   14.23708181 rev/day
Decay rate:       -7.7e-07 rev/day^2
Epoch rev:           41597
Checksum:              351

Satellite: GO-32
Catalog number: 25397
Epoch time:      06193.64125949
Element set:    0059
Inclination:      098.4668 deg
RA of node:       249.7485 deg
Eccentricity:    0.0001974
Arg of perigee:   121.0532 deg
Mean anomaly:     239.0854 deg
Mean motion:   14.23107000 rev/day
Decay rate:       -8.4e-07 rev/day^2
Epoch rev:           41586
Checksum:              316

Satellite: UO-36
Catalog number: 25693
Epoch time:      06193.53565217
Element set:    0089
Inclination:      064.5559 deg
RA of node:       164.8528 deg
Eccentricity:    0.0021172
Arg of perigee:   328.4580 deg
Mean anomaly:     031.5257 deg
Mean motion:   14.78605206 rev/day
Decay rate:       -7.6e-07 rev/day^2
Epoch rev:           38953
Checksum:              330

Satellite: MO-46
Catalog number: 26548
Epoch time:      06194.34205665
Element set:     542
Inclination:      064.5559 deg
RA of node:       150.8384 deg
Eccentricity:    0.0047609
Arg of perigee:   243.3106 deg
Mean anomaly:     116.3123 deg
Mean motion:   14.82993485 rev/day
Decay rate:       1.03e-06 rev/day^2
Epoch rev:           31328
Checksum:              306

Satellite: NO-44
Catalog number: 26931
Epoch time:      06194.79775816
Element set:     350
Inclination:      067.0548 deg
RA of node:       299.1366 deg
Eccentricity:    0.0006636
Arg of perigee:   254.1971 deg
Mean anomaly:     105.8413 deg
Mean motion:   14.29446071 rev/day
Decay rate:       2.09e-06 rev/day^2
Epoch rev:           24973
Checksum:              329

Satellite: SO-50
Catalog number: 27607
Epoch time:      06194.60862803
Element set:      69
Inclination:      064.5586 deg
RA of node:       032.8859 deg
Eccentricity:    0.0040553
Arg of perigee:   137.5092 deg
Mean anomaly:     222.9142 deg
Mean motion:   14.71154508 rev/day
Decay rate:       -4.2e-07 rev/day^2
Epoch rev:           19131
Checksum:              299

Satellite: CO-57
Catalog number: 27848
Epoch time:      06193.56963766
Element set:    0769
Inclination:      098.7110 deg
RA of node:       200.8193 deg
Eccentricity:    0.0010063
Arg of perigee:   358.9382 deg
Mean anomaly:     001.1822 deg
Mean motion:   14.20273853 rev/day
Decay rate:       1.03e-06 rev/day^2
Epoch rev:           15724
Checksum:              309

Satellite: AO-51
Catalog number: 28375
Epoch time:      06194.47164474
Element set:     577
Inclination:      098.1619 deg
RA of node:       245.3070 deg
Eccentricity:    0.0084406
Arg of perigee:   127.4120 deg
Mean anomaly:     233.4794 deg
Mean motion:   14.40526100 rev/day
Decay rate:        2.1e-07 rev/day^2
Epoch rev:           10694
Checksum:              290

Satellite: XO-53
Catalog number: 28894
Epoch time:      06194.70725531
Element set:     598
Inclination:      098.1644 deg
RA of node:       092.6045 deg
Eccentricity:    0.0018701
Arg of perigee:   089.8719 deg
Mean anomaly:     270.4622 deg
Mean motion:   14.59490379 rev/day
Decay rate:       1.75e-06 rev/day^2
Epoch rev:            3784
Checksum:              347

Satellite: CO-56
Catalog number: 28941
Epoch time:      06194.07674096
Element set:     143
Inclination:      098.1732 deg
RA of node:       215.3415 deg
Eccentricity:    0.0277417
Arg of perigee:   020.8114 deg
Mean anomaly:     340.4299 deg
Mean motion:   15.25798242 rev/day
Decay rate:     2.1159e-04 rev/day^2
Epoch rev:            2149
Checksum:              315

/EX
SB KEPS @ AMSAT  $ORB06194.W
Orbital Elements  06194.WEATHER

HR AMSAT ORBITAL ELEMENTS FOR WEATHER SATELLITES
FROM WA5QGD FORT WORTH,TX July 13, 2006
Send SUBSCRIBE KEPS/UNSUBSCRIBE KEPS to majordomo@amsat.org only
BID: ORB06194.W
TO ALL RADIO AMATEURS BT

Satellite: NOAA-10
Catalog number: 16969
Epoch time:      06193.66167359
Element set:    0274
Inclination:      098.7584 deg
RA of node:       205.3490 deg
Eccentricity:    0.0013383
Arg of perigee:   077.1404 deg
Mean anomaly:     283.1263 deg
Mean motion:   14.27298359 rev/day
Decay rate:       -9.3e-07 rev/day^2
Epoch rev:           03079
Checksum:              330

